Time,TemperatureF,DewpointF,PressureIn,WindDirection,WindDirectionDegrees,WindSpeedMPH,WindSpeedGustMPH,Humidity,HourlyPrecipIn,Conditions,Clouds,dailyrainin,SoftwareType,DateUTC
2013-01-13 00:11:00,26.5,19.0,29.92,North,11,0.0,-999.0,72,-99.99,,,0.00,weatherlink.com 1.10,2013-01-13 05:11:00,
2013-01-13 00:26:00,26.2,18.0,29.95,WSW,244,1.0,-999.0,71,-99.99,,,0.00,weatherlink.com 1.10,2013-01-13 05:26:00,
2013-01-13 00:41:00,25.9,17.0,29.97,WNW,300,0.0,-999.0,70,-99.99,,,0.00,weatherlink.com 1.10,2013-01-13 05:41:00,
2013-01-13 00:56:00,25.7,17.0,29.96,NNE,15,0.0,-999.0,70,-99.99,,,0.00,weatherlink.com 1.10,2013-01-13 05:56:00,
2013-01-13 01:11:00,25.4,17.0,29.98,NNE,15,0.0,-999.0,70,-99.99,,,0.00,weatherlink.com 1.10,2013-01-13 06:11:00,
2013-01-13 01:26:00,24.9,16.0,29.96,NNE,15,0.0,-999.0,70,-99.99,,,0.00,weatherlink.com 1.10,2013-01-13 06:26:00,
2013-01-13 01:41:00,24.3,16.0,29.95,NNE,16,0.0,-999.0,71,-99.99,,,0.00,weatherlink.com 1.10,2013-01-13 06:41:00,
2013-01-13 01:56:00,24.0,16.0,29.96,NNE,15,0.0,-999.0,70,-99.99,,,0.00,weatherlink.com 1.10,2013-01-13 06:56:00,
2013-01-13 02:11:00,23.7,16.0,29.96,NNE,15,0.0,-999.0,71,-99.99,,,0.00,weatherlink.com 1.10,2013-01-13 07:11:00,
2013-01-13 02:26:00,23.6,15.0,29.95,SSW,202,0.0,-999.0,71,-99.99,,,0.00,weatherlink.com 1.10,2013-01-13 07:26:00,
2013-01-13 02:41:00,23.2,15.0,29.96,ENE,66,0.0,-999.0,71,-99.99,,,0.00,weatherlink.com 1.10,2013-01-13 07:41:00,
2013-01-13 02:56:00,22.9,15.0,29.98,East,80,0.0,-999.0,71,-99.99,,,0.00,weatherlink.com 1.10,2013-01-13 07:56:00,
2013-01-13 03:11:00,22.6,14.0,29.98,SW,232,1.0,-999.0,70,-99.99,,,0.00,weatherlink.com 1.10,2013-01-13 08:11:00,
2013-01-13 03:26:00,22.5,14.0,29.98,ENE,66,0.0,-999.0,71,-99.99,,,0.00,weatherlink.com 1.10,2013-01-13 08:26:00,
2013-01-13 03:41:00,22.4,14.0,29.99,ENE,65,0.0,-999.0,70,-99.99,,,0.00,weatherlink.com 1.10,2013-01-13 08:41:00,
2013-01-13 03:56:00,22.2,14.0,29.96,East,79,0.0,-999.0,71,-99.99,,,0.00,weatherlink.com 1.10,2013-01-13 08:56:00,
2013-01-13 04:11:00,22.0,14.0,29.97,SSW,195,0.0,-999.0,71,-99.99,,,0.00,weatherlink.com 1.10,2013-01-13 09:11:00,
2013-01-13 04:26:00,21.9,14.0,29.97,SSW,195,0.0,-999.0,71,-99.99,,,0.00,weatherlink.com 1.10,2013-01-13 09:26:00,
2013-01-13 04:41:00,21.8,14.0,29.97,SSE,165,0.0,-999.0,71,-99.99,,,0.00,weatherlink.com 1.10,2013-01-13 09:41:00,
2013-01-13 04:56:00,21.7,14.0,29.95,SSE,168,0.0,-999.0,71,-99.99,,,0.00,weatherlink.com 1.10,2013-01-13 09:56:00,
2013-01-13 05:11:00,21.5,13.0,29.94,NNW,338,0.0,-999.0,71,-99.99,,,0.00,weatherlink.com 1.10,2013-01-13 10:11:00,
2013-01-13 05:26:00,21.6,14.0,29.94,NNE,20,0.0,-999.0,71,-99.99,,,0.00,weatherlink.com 1.10,2013-01-13 10:26:00,
2013-01-13 05:41:00,21.6,14.0,29.95,SSE,152,1.0,-999.0,72,-99.99,,,0.00,weatherlink.com 1.10,2013-01-13 10:41:00,
2013-01-13 05:56:00,21.6,14.0,29.95,SSE,149,0.0,-999.0,71,-99.99,,,0.00,weatherlink.com 1.10,2013-01-13 10:56:00,
2013-01-13 06:11:00,21.6,13.0,29.96,ENE,74,0.0,-999.0,70,-99.99,,,0.00,weatherlink.com 1.10,2013-01-13 11:11:00,
2013-01-13 06:26:00,21.6,14.0,29.97,South,188,0.0,-999.0,71,-99.99,,,0.00,weatherlink.com 1.10,2013-01-13 11:26:00,
2013-01-13 06:41:00,21.4,13.0,29.96,WSW,239,0.0,-999.0,70,-99.99,,,0.00,weatherlink.com 1.10,2013-01-13 11:41:00,
2013-01-13 06:56:00,21.5,13.0,29.96,WSW,239,0.0,-999.0,70,-99.99,,,0.00,weatherlink.com 1.10,2013-01-13 11:56:00,
2013-01-13 07:11:00,21.4,13.0,29.96,SW,222,0.0,-999.0,69,-99.99,,,0.00,weatherlink.com 1.10,2013-01-13 12:11:00,
2013-01-13 07:26:00,21.4,13.0,29.96,SW,223,0.0,-999.0,69,-99.99,,,0.00,weatherlink.com 1.10,2013-01-13 12:26:00,
2013-01-13 07:41:00,21.3,13.0,29.97,SW,223,0.0,-999.0,69,-99.99,,,0.00,weatherlink.com 1.10,2013-01-13 12:41:00,
2013-01-13 08:11:00,21.3,13.0,29.98,South,181,0.0,-999.0,70,-99.99,,,0.00,weatherlink.com 1.10,2013-01-13 13:11:00,
2013-01-13 08:26:00,21.2,13.0,29.98,South,180,0.0,-999.0,70,-99.99,,,0.00,weatherlink.com 1.10,2013-01-13 13:26:00,
2013-01-13 08:41:00,21.2,13.0,29.99,South,180,0.0,-999.0,70,-99.99,,,0.00,weatherlink.com 1.10,2013-01-13 13:41:00,
2013-01-13 08:56:00,21.1,13.0,29.99,South,180,0.0,-999.0,71,-99.99,,,0.00,weatherlink.com 1.10,2013-01-13 13:56:00,
2013-01-13 09:11:00,21.0,13.0,30.00,South,181,0.0,-999.0,70,-99.99,,,0.00,weatherlink.com 1.10,2013-01-13 14:11:00,
2013-01-13 09:26:00,21.0,13.0,30.00,South,181,0.0,-999.0,71,-99.99,,,0.00,weatherlink.com 1.10,2013-01-13 14:26:00,
2013-01-13 09:41:00,21.1,13.0,30.01,South,181,0.0,-999.0,72,-99.99,,,0.00,weatherlink.com 1.10,2013-01-13 14:41:00,
2013-01-13 09:56:00,20.9,13.0,30.01,South,184,0.0,-999.0,71,-99.99,,,0.00,weatherlink.com 1.10,2013-01-13 14:56:00,
2013-01-13 10:11:00,21.0,14.0,30.02,ESE,117,0.0,-999.0,73,-99.99,,,0.00,weatherlink.com 1.10,2013-01-13 15:11:00,
2013-01-13 10:26:00,21.1,14.0,30.02,ENE,74,0.0,-999.0,74,-99.99,,,0.00,weatherlink.com 1.10,2013-01-13 15:26:00,
2013-01-13 10:41:00,21.1,14.0,30.02,SW,224,0.0,-999.0,75,-99.99,,,0.00,weatherlink.com 1.10,2013-01-13 15:41:00,
2013-01-13 10:56:00,21.3,15.0,30.02,SW,224,0.0,-999.0,76,-99.99,,,0.00,weatherlink.com 1.10,2013-01-13 15:56:00,
2013-01-13 11:11:00,21.3,15.0,30.01,SW,225,0.0,-999.0,78,-99.99,,,0.00,weatherlink.com 1.10,2013-01-13 16:11:00,
2013-01-13 11:26:00,21.6,16.0,30.01,SW,225,0.0,-999.0,78,-99.99,,,0.00,weatherlink.com 1.10,2013-01-13 16:26:00,
2013-01-13 11:41:00,21.7,16.0,30.02,SW,225,0.0,-999.0,77,-99.99,,,0.00,weatherlink.com 1.10,2013-01-13 16:41:00,
2013-01-13 11:56:00,22.0,16.0,30.01,SW,225,0.0,-999.0,77,-99.99,,,0.00,weatherlink.com 1.10,2013-01-13 16:56:00,
2013-01-13 12:11:00,22.0,16.0,30.00,North,360,2.0,-999.0,76,-99.99,,,0.00,weatherlink.com 1.10,2013-01-13 17:11:00,
2013-01-13 12:26:00,21.8,15.0,29.99,South,191,0.0,-999.0,76,-99.99,,,0.00,weatherlink.com 1.10,2013-01-13 17:26:00,
2013-01-13 12:41:00,21.8,16.0,29.99,SE,138,0.0,-999.0,77,-99.99,,,0.00,weatherlink.com 1.10,2013-01-13 17:41:00,
2013-01-13 12:56:00,22.0,16.0,29.97,SE,138,0.0,-999.0,76,-99.99,,,0.00,weatherlink.com 1.10,2013-01-13 17:56:00,
2013-01-13 13:11:00,22.0,16.0,29.97,SE,138,0.0,-999.0,76,-99.99,,,0.00,weatherlink.com 1.10,2013-01-13 18:11:00,
2013-01-13 13:26:00,22.1,16.0,29.96,SE,138,0.0,-999.0,76,-99.99,,,0.00,weatherlink.com 1.10,2013-01-13 18:26:00,
2013-01-13 13:41:00,21.9,16.0,29.96,NE,40,0.0,-999.0,77,-99.99,,,0.00,weatherlink.com 1.10,2013-01-13 18:41:00,
2013-01-13 13:56:00,21.6,15.0,29.96,NE,41,0.0,-999.0,76,-99.99,,,0.00,weatherlink.com 1.10,2013-01-13 18:56:00,
2013-01-13 14:11:00,21.7,15.0,29.97,NE,53,0.0,-999.0,76,-99.99,,,0.00,weatherlink.com 1.10,2013-01-13 19:11:00,
2013-01-13 14:26:00,21.6,14.0,29.97,ENE,65,0.0,-999.0,73,-99.99,,,0.00,weatherlink.com 1.10,2013-01-13 19:26:00,
2013-01-13 14:41:00,21.8,14.0,29.97,NE,46,0.0,-999.0,73,-99.99,,,0.00,weatherlink.com 1.10,2013-01-13 19:41:00,
2013-01-13 14:56:00,22.4,15.0,29.98,NE,46,0.0,-999.0,72,-99.99,,,0.00,weatherlink.com 1.10,2013-01-13 19:56:00,
2013-01-13 15:11:00,22.3,14.0,29.99,NNE,29,0.0,-999.0,71,-99.99,,,0.00,weatherlink.com 1.10,2013-01-13 20:11:00,
2013-01-13 15:26:00,22.1,16.0,30.00,NE,43,0.0,-999.0,76,-99.99,,,0.00,weatherlink.com 1.10,2013-01-13 20:26:00,
2013-01-13 15:41:00,22.0,14.0,29.99,NNE,16,0.0,-999.0,71,-99.99,,,0.00,weatherlink.com 1.10,2013-01-13 20:41:00,
2013-01-13 15:56:00,22.0,14.0,29.99,NW,323,1.0,-999.0,70,-99.99,,,0.00,weatherlink.com 1.10,2013-01-13 20:56:00,
2013-01-13 16:11:00,21.9,14.0,30.00,NNW,342,0.0,-999.0,71,-99.99,,,0.00,weatherlink.com 1.10,2013-01-13 21:11:00,
2013-01-13 16:26:00,21.9,14.0,30.00,NE,48,0.0,-999.0,71,-99.99,,,0.00,weatherlink.com 1.10,2013-01-13 21:26:00,
2013-01-13 16:41:00,21.8,14.0,30.00,NE,49,0.0,-999.0,71,-99.99,,,0.00,weatherlink.com 1.10,2013-01-13 21:41:00,
2013-01-13 16:56:00,21.7,14.0,30.00,NE,49,0.0,-999.0,72,-99.99,,,0.00,weatherlink.com 1.10,2013-01-13 21:56:00,
2013-01-13 17:11:00,21.5,13.0,30.00,NE,49,0.0,-999.0,71,-99.99,,,0.00,weatherlink.com 1.10,2013-01-13 22:11:00,
2013-01-13 17:26:00,21.1,13.0,29.98,NE,48,0.0,-999.0,70,-99.99,,,0.00,weatherlink.com 1.10,2013-01-13 22:26:00,
2013-01-13 17:41:00,20.9,13.0,30.00,WNW,292,0.0,-999.0,70,-99.99,,,0.00,weatherlink.com 1.10,2013-01-13 22:41:00,
2013-01-13 17:56:00,20.9,12.0,30.00,WNW,287,0.0,-999.0,68,-99.99,,,0.00,weatherlink.com 1.10,2013-01-13 22:56:00,
2013-01-13 18:11:00,20.9,12.0,29.99,WNW,288,0.0,-999.0,69,-99.99,,,0.00,weatherlink.com 1.10,2013-01-13 23:11:00,
2013-01-13 18:26:00,20.9,13.0,29.98,ENE,61,0.0,-999.0,70,-99.99,,,0.00,weatherlink.com 1.10,2013-01-13 23:26:00,
2013-01-13 18:41:00,20.7,12.0,29.98,ENE,60,1.0,-999.0,68,-99.99,,,0.00,weatherlink.com 1.10,2013-01-13 23:41:00,
2013-01-13 18:56:00,20.5,12.0,29.98,NE,38,0.0,-999.0,70,-99.99,,,0.00,weatherlink.com 1.10,2013-01-13 23:56:00,
2013-01-13 19:11:00,20.3,12.0,29.98,NE,38,1.0,-999.0,71,-99.99,,,0.00,weatherlink.com 1.10,2013-01-14 00:11:00,
2013-01-13 19:26:00,20.2,12.0,29.98,NE,39,0.0,-999.0,71,-99.99,,,0.00,weatherlink.com 1.10,2013-01-14 00:26:00,
2013-01-13 19:41:00,20.0,12.0,29.99,NW,323,0.0,-999.0,72,-99.99,,,0.00,weatherlink.com 1.10,2013-01-14 00:41:00,
2013-01-13 19:56:00,19.5,12.0,30.00,SW,232,0.0,-999.0,73,-99.99,,,0.00,weatherlink.com 1.10,2013-01-14 00:56:00,
2013-01-13 20:11:00,19.2,12.0,30.01,WSW,256,0.0,-999.0,73,-99.99,,,0.00,weatherlink.com 1.10,2013-01-14 01:11:00,
2013-01-13 20:26:00,19.0,12.0,30.01,West,263,1.0,-999.0,73,-99.99,,,0.00,weatherlink.com 1.10,2013-01-14 01:26:00,
2013-01-13 20:56:00,18.2,10.0,30.02,NNW,327,0.0,-999.0,71,-99.99,,,0.00,weatherlink.com 1.10,2013-01-14 01:56:00,
2013-01-13 21:11:00,18.1,11.0,30.03,SW,225,0.0,-999.0,72,-99.99,,,0.00,weatherlink.com 1.10,2013-01-14 02:11:00,
2013-01-13 21:26:00,18.0,10.0,30.03,NNW,336,0.0,-999.0,72,-99.99,,,0.00,weatherlink.com 1.10,2013-01-14 02:26:00,
2013-01-13 21:41:00,17.7,11.0,30.03,WSW,248,0.0,-999.0,74,-99.99,,,0.00,weatherlink.com 1.10,2013-01-14 02:41:00,
2013-01-13 21:56:00,17.5,11.0,30.03,WSW,242,0.0,-999.0,74,-99.99,,,0.00,weatherlink.com 1.10,2013-01-14 02:56:00,
2013-01-13 22:11:00,17.5,11.0,30.03,SW,221,0.0,-999.0,75,-99.99,,,0.00,weatherlink.com 1.10,2013-01-14 03:11:00,
2013-01-13 22:26:00,17.4,10.0,30.03,SW,226,1.0,-999.0,73,-99.99,,,0.00,weatherlink.com 1.10,2013-01-14 03:26:00,
2013-01-13 22:41:00,17.3,10.0,30.03,SW,227,0.0,-999.0,72,-99.99,,,0.00,weatherlink.com 1.10,2013-01-14 03:41:00,
2013-01-13 22:55:00,17.3,10.0,30.04,SW,234,0.0,-999.0,72,-99.99,,,0.00,weatherlink.com 1.10,2013-01-14 03:55:00,
2013-01-13 23:10:00,16.9,10.0,30.04,SSW,210,0.0,-999.0,75,-99.99,,,0.00,weatherlink.com 1.10,2013-01-14 04:10:00,
2013-01-13 23:25:00,16.6,10.0,30.05,SW,227,1.0,-999.0,75,-99.99,,,0.00,weatherlink.com 1.10,2013-01-14 04:25:00,
2013-01-13 23:40:00,16.3,10.0,30.05,WSW,241,0.0,-999.0,76,-99.99,,,0.00,weatherlink.com 1.10,2013-01-14 04:40:00,
2013-01-13 23:55:00,16.2,10.0,30.06,SW,217,3.0,-999.0,76,-99.99,,,0.00,weatherlink.com 1.10,2013-01-14 04:55:00,